Location: Maiden
(35.5760°N, 81.2120°W)
Time: 22:05:25
(UTC-04:00)

A-11 Canister half - Pass Details

Date: 13 August 2020
Orbit: 1514 x 1686 km, 47.2° (Epoch: 26 September)

Event Time Altitude Azimuth Distance (km) Brightness Sun altitude
Rises 00:10:29 0° 303° (WNW) 4,856 12.3 -36.5°
Reaches altitude 10° 00:13:35 10° 305° (NW) 3,888 11.7 -36.7°
Maximum altitude 00:23:39 82° 34° (NNE) 1,692 9.0 -37.5°
Enters shadow 00:24:05 80° 68° (ENE) 1,699 9.0 -37.5°
